Regional Weather Roundup
Issued by NWS Wakefield, VA

Home | Current Version | Previous Version | Graphics & Text | Print | Product List | Glossary On
Versions: 1 2 3 4 5 6 7 8 9 10 11 12 13 14 15 16 17 18 19 20 21 22 23 24 25 26 27 28 29 30 31 32 33 34 35 36 37 38 39 40 41 42 43 44 45 46 47 48 49 50
000
ASUS41 KAKQ 221410
RWRAKQ

REGIONAL WEATHER ROUNDUP
NATIONAL WEATHER SERVICE WAKEFIELD VA
900 AM EST SAT NOV 22 2014

Note: "fair" indicates few or no clouds below 12,000 feet with no
significant weather and/or obstructions to visibility. * = Denotes
station may not report precipitation (e.g., rain,snow,etc.),
thunder or fog.

VAZ042-051-052>054-056-221500-
NORTHERN VIRGINIA

CITY           SKY/WX    TMP DP  RH WIND       PRES   REMARKS
WASH NATIONAL  MOSUNNY   33  20  58 S10       30.53F WCI  25
DULLES         SUNNY     27  17  66 S5        30.49F
FORT BELVOIR   SUNNY     29  22  74 VRB3      30.53S
QUANTICO       SUNNY     34  19  54 S14       30.54F WCI  25
FREDERICKSBRG* SUNNY     33  18  53 S3        30.52S
STAFFORD*      SUNNY     30  17  57 CALM      30.56S
WARRENTON      SUNNY     29  24  80 CALM      30.49F
CULPEPER*      SUNNY     30  19  64 S3        30.50R
MANASSAS*      SUNNY     30  23  74 CALM      30.50F
LEESBURG*      SUNNY     30  19  64 S6        30.49F
WINCHESTER     SUNNY     30  12  47 S5        30.43S
FRONT ROYAL*   SUNNY     27  16  63 CALM      30.43S
LURAY*         SUNNY     32  23  69 CALM      30.43S
$$

VAZ048-049-060>072-079>083-221500-
CENTRAL AND SOUTH CENTRAL VIRGINIA

CITY           SKY/WX    TMP DP  RH WIND       PRES   REMARKS
RICHMOND       MOSUNNY   33  21  61 S6        30.56R
CHESTERFIELD*  SUNNY     34  12  40 S5        30.57R
PETERSBURG*    SUNNY     33  24  69 S3        30.58R
HANOVER        SUNNY     31  20  63 S7        30.57R
TAPPAHANNOCK*  SUNNY     33  17  53 S8        30.56R
QUINTON*       FAIR      30  21  67 CALM      30.57R
CHARLOTTSVILLE SUNNY     28  14  55 S8        30.48S
GORDONSVILLE*  SUNNY     28  14  56 SW9       30.48F
ORANGE*        SUNNY     32  18  55 S10       30.50S WCI  24
LOUISA*        SUNNY     32  16  51 S8        30.49S
BUMPASS*       FAIR      31  15  52 S6        30.52S
FARMVILLE*     SUNNY     32  22  66 SW8       30.53S
CREWE*         SUNNY     32  18  56 SW6       30.54S
FORT PICKETT*  SUNNY     31  20  65 SW8       30.55S
LUNENBURG*     SUNNY     34  21  60 SW6       30.54S
CHASE CITY*    FAIR      32  21  64 MISG      30.56S
CLARKSVILLE*   FAIR      32  21  64 S3        30.56S
SOUTH HILL*    SUNNY     32  20  61 S7        30.63R
LAWRENCEVILLE* SUNNY     31  22  72 CALM      30.57S
$$

VAZ088>098-221500-
SOUTHEAST VIRGINIA

CITY           SKY/WX    TMP DP  RH WIND       PRES   REMARKS
NORFOLK        SUNNY     40  24  53 S6        30.57R
VIRGINIA BEACH MOSUNNY   39  27  62 CALM      30.57S
NORFOLK NAVAL  MOSUNNY   42  23  46 S6        30.58S
WEST POINT*    SUNNY     35  25  67 S6        30.59R
SALUDA*        FAIR      35  22  58 SW5       30.56S
NEWPORT NEWS   SUNNY     40  27  59 SW7       30.58R
LANGLEY AFB    SUNNY     39  30  70 SW5       30.58R
FORT EUSTIS    SUNNY     36  22  56 SW3       30.56R
WILLIAMSBURG*  SUNNY     37  27  65 SW5       30.58S
HR EXEC AP*    SUNNY     34  27  75 CALM      30.60R
FRANKLIN*      SUNNY     30  25  80 CALM      30.58F
WAKEFIELD      SUNNY     32  20  61 SW5       30.58S
$$

VAZ020-022-025-037-045-221500-
WEST CENTRAL AND SOUTHWEST VIRGINIA

CITY           SKY/WX    TMP DP  RH WIND       PRES   REMARKS
STAUNTON*      SUNNY     33  15  47 S5        30.45S
WAYNESBORO*    SUNNY     29  12  48 CALM      30.42S
HOT SPRINGS VA SUNNY     40   2  20 W15       30.34R
LYNCHBURG      SUNNY     26  17  68 S6        30.52S
DANVILLE       MOSUNNY   28  20  71 S3        30.57R
SOUTH BOSTON*  SUNNY     29  21  73 CALM      30.57S
MARTINSVILLE   MOSUNNY   26  21  82 CALM      30.56S
ROANOKE        MOSUNNY   27  16  63 CALM      30.51F
BLACKSBURG     SUNNY     28  21  74 CALM      30.47S
DUBLIN*        SUNNY     30  19  64 CALM      30.46S
MARION*        SUNNY     29  16  56 CALM      30.46S
HILLSVILLE*    SUNNY     32  11  42 S6        30.44S
RICHLANDS*     MOSUNNY   42  13  30 S5        30.39S
WISE*          MOSUNNY   41  14  33 S5        30.39S
ABINGDON*      SUNNY     34  13  41 E7        30.43S
$$

MDZ021>025-VAZ099-100-221500-
SOUTHERN MARYLAND AND THE DELMARVA PENINSULA

CITY           SKY/WX    TMP DP  RH WIND       PRES   REMARKS
PATUXENT RIVER MOSUNNY   36  18  48 SW7       30.54F
BAY BRIDGE APT   N/A     36  23  60 S5        30.53S
LEONARDTOWN    SUNNY     36  19  51 S5        30.55R
DOVER          SUNNY     32  20  61 S9        30.52S
GEORGETOWN     SUNNY     32  17  54 S5        30.55F
EASTON         NOT AVBL
CAMBRIDGE      SUNNY     34  23  64 SE5       30.54S
SALISBURY      SUNNY     35  17  47 S5        30.55F
OCEAN CITY     SUNNY     36  14  40 SW3       30.56S
WALLOPS ISLAND SUNNY     37  25  61 CALM      30.56F
ACCOMACK*      SUNNY     36  21  55 S3        30.56S
$$

NCZ012>017-030>032-221500-
NORTH CENTRAL AND EASTERN NORTH CAROLINA

CITY           SKY/WX    TMP DP  RH WIND       PRES   REMARKS
ROANOKE RAPIDS SUNNY     32  27  80 CALM      30.59S
RALEIGH        MOSUNNY   33  18  53 SW3       30.59R
ELIZABETH CITY SUNNY     43  30  60 CALM      30.59S
AHOSKIE*       SUNNY     32  23  69 CALM      30.60R
EDENTON*         N/A     41  27  57 E3        30.58S
CURRITUCK*     SUNNY     36  27  71 CALM      30.59R
KILL DEVIL HLS SUNNY     42  31  66 CALM      30.57S
MANTEO         SUNNY     42  30  62 N3        30.59R
CAPE HATTERAS  SUNNY     45  37  73 VRB6      30.56S
TARBORO*       SUNNY     31  26  79 CALM      30.60S
GOLDSBORO      SUNNY     35  27  71 CALM      30.58R
WASHINGTON     SUNNY     38  22  52 CALM      30.58S
GREENVILLE     SUNNY     36  27  69 CALM      30.58R
NEW BERN       SUNNY     42  26  53 E6        30.60R
WILMINGTON     SUNNY     44  28  53 NE8       30.57R
$$

VAZ048-221500-
ELSEWHERE

CITY           SKY/WX    TMP DP  RH WIND       PRES   REMARKS
HARRISBURG PA  MOSUNNY   26  16  65 SE6       30.47F
BALTIMORE      MOSUNNY   29  17  61 S5        30.51F
ANNAPOLIS      SUNNY     33  16  49 VRB5      30.53F
ANDREWS AFB    SUNNY     32  18  57 SW9       30.51F
PHILADELPHIA   MOSUNNY   31  18  58 SW8       30.53S
WILDWOOD NJ*   SUNNY     36  18  48 SW8       30.52F
HENDERSON NC   SUNNY     34  20  56 S8        30.57S
GREENSBORO     PTSUNNY   35  17  47 SW6       30.55R
ROCKY MOUNT    SUNNY     34  22  61 NW3       30.60R
$$

VAZ100-221500-
MARINE

STATION/POSITION TIME  TEMP    WIND        PRES    WAVE   SWELL
                       AIR SEA DIR/SP/G            HT/PER HT/PER
                 (UTC) (F)     (DEG/KT/KT) (MB)    (FT/S) (FT/S)
CAPE MAY NJ      1400   37 45  230/ 10/ 12 1033.8F
LEWES DE         1400   33 44  220/  4/  6 1034.2F
15NM E FENWICK I 1400   39 53              1034.5R   1/ 4
OCEAN-CITY-INLET 1400   36 48  250/  5/  6 1034.4F
WACHAPREAGUE VA  1400   42 40  210/  2/  3 1034.8F
THOMAS POINT MD  1400   36 45  210/ 13/ 15 1034.9F
GOOSES REEF MD   1400   37 48  220/ 14/ 16 1034.4F   1/ 2
COVE POINT MD    1400   37     220/  8/ 10 1034.0S
SOLOMONS ISLAND  1400      46                N/A
BISHOPS HEAD MD  1400   37 37  170/ 13/ 15 1033.5F
PINEY POINT MD   1400          230/  9/ 11   N/A
POTOMAC MD       1400   39 48  220/ 10/ 14 1033.5R   0
CAMBRIDGE MD     1400   33 42  160/  4/  5 1034.0S
LEWISETTA VA     1400   35 41  230/  7/  8 1034.2R
RAPPAHANNOCK LGT 1400          160/  9/ 10 1035.0F
STINGRAY PT      1400   39 48  230/ 12/ 14 1035.1R   1
YORK RVR RNG VA  1400   40     240/  8/ 10 1034.6R
YORKTOWN VA      1400   36 50  230/  7/  9 1035.1R
JAMESTOWN VA     1400   32 47  260/  6/  6   N/A     1
DOMINION TERM VA 1400   38     190/  6/  7 1035.3R
KIPTOPEKE VA     1400      51  150/  5/  6   N/A
CHES BAY BRIDGE  1400   41 51  160/  6/  7 1034.6S
CAPE HENRY VA    1400   40     190/  4/  5 1033.9S
CHESAPEAKE LGHT  1300   44      80/  3/  4 1035.5F
WILLOUBY STN VA  1400   40     200/  6/  7 1033.8R
S CRANEY ISL VA  1400          160/  4/  5 1035.1S
CAPE HENRY BUOY  1300      54                N/A     2/ 5
1ST LANDING BUOY 1400   42 53  170/  8/ 10 1034.6S   1
CAPE CHARLES BUO 1400      54                N/A     1/ 4   2/ 4
64NM E OF VA BCH 1400   45 60  350/  2/  6 1034.7R   3/ 6   3/ 6
DUCK PIER NC     1400   41 54  290/  5/  5 1034.6F
44100 DUCK FRF   1300      58                N/A     3/ 7
44056 DUCK FRF   1400      55                N/A     3/ 6
OREGON INLET NC  1400   43 50  300/  6/  8 1035.5S
HATTERAS NC      1400   45 49   10/ 12/ 14 1035.2F
DIAMOND SHLS NC  1400   53     350/ 10/ 14 1034.7R   4/10   3/10


USA.gov is the U.S. government's official web portal to all federal, state and local government web resources and services.